User: anonymous   Login
Location: Karlsruhe
(49.0131°N, 8.3874°E)
Time: 15:22:30
(UTC+02:00)
Language:

ISS - Orbit

View from above orbital plane
View from above orbital plane
View from above satellite
View from above satellite

Ground track
Ground track

The orbit data is extracted from the following two-line orbital elements,

1 25544U 98067A   21176.36001853 -.00000531  00000-0 -15293-5 0  9999
2 25544  51.6455 302.3054 0002044  94.8199 356.3824 15.48726669289863
Epoch (UTC): 25 June 2021 08:38:25
Eccentricity: 0.0002044
inclination: 51.6455°
perigee height: 419 km
apogee height: 422 km
right ascension of ascending node: 302.3054°
argument of perigee: 94.8199°
revolutions per day: 15.48726669
mean anomaly at epoch: 356.3824°
orbit number at epoch: 28986

The dashed part of the orbit path shows where the satellite is in the earth's shadow,  

DLR